Weather in Novoobinka

Russia / Altai Krai     52°14′16″N   84°04′01″E
temp.,
°C
wind,
m/s
gust,
m/s
humid.,
%
clouds,
%
prec.,
mm/h
press.,
hPa
HPBL,
m
15 april, thu
thu1501:00+3sw4108299 0.0 1028157
04:00+2sw3108393 0.0 1027153
07:00+2wsw2589100 0.0 102885
10:00+2ssw2499100 0.0 102870
13:00+4wsw1399100 0.0 102796
16:00+6se0198100 0.0 102783
19:00+3se11100100 0.0 102632
22:00+1s1210087 0.0 102636
16 april, fri
fri1601:00+1s1196100 0.0 102420
04:00+2sse229497 0.0 102322
07:00+4s2288100 0.0 102219
10:00+7ssw24875 0.0 1021117
13:00+13wsw36670 0.0 1020504
16:00+15sw46582 0.0 10181211
19:00+13ssw36702 0.0 101692
22:00+9ssw46755 0.0 101676
17 april, sat
sat1701:00+8ssw497615 0.0 1015129
04:00+7nw2385100 0.0 101563
07:00+5n3695100 0.0 1017386
10:00+3nne4686100 0.0 1019434
13:00+2ne3596100 0.1 1019333
16:00+2ne2399100 0.2 1020169
19:00+2s229799 0.3 1020167
22:00+2ssw2495100 0.0 1022148
18 april, sun
sun1801:00+2wnw238932 0.0 102267
04:000nne2289100 0.0 102347
07:000ene2390100 0.0 102395
10:00+3e2277100 0.0 1021442
13:00+7wsw1461100 0.0 10191233
16:00+10w5940100 0.0 10161900
19:00+10w2453100 0.0 1014124
22:00+8ssw236695 0.0 101160
19 april, mon
mon1901:00+6ene117777 0.0 100916
04:00+7sw515700 0.0 1007355
07:00+7wsw81575100 0.1 10081093
10:00+3wnw91774100 0.3 10121307
13:00+3w10134467 0.3 10161468
16:00+5w8114195 0.0 10181894
19:00+4wnw6946100 0.0 10191943
22:000nw376094 0.0 1022505